This demonstration page uses our WeatherBlox Daily Observations layout. Learn more.

39.01783, -85.05884

Hourly Observations for November 17, 2019

Temp ( °F °C ) Dew Point ( °F °C ) Humidity (%) Winds ( mph kmh ) Pressure ( in mb ) Visibility ( mi km ) Precip ( " mm )
12:52 am 00:52 Clear 29 -1.7 24 -4.4 82 82 N 3 6 30.16 1022 10 16.0934 0 0
1:52 am 01:52 Clear 30 -1.1 25 -3.9 82 82 N 5 7 30.15 1021 10 16.0934 0 0
2:52 am 02:52 Clear 28 -2.2 24 -4.4 85 85 N 6 9 30.15 1021 10 16.0934 0 0
3:52 am 03:52 Clear 29 -1.7 24 -4.4 82 82 NNE 5 7 30.14 1021 10 16.0934 0 0
4:52 am 04:52 Clear 30 -1.1 25 -3.9 82 82 NE 5 7 30.13 1020 10 16.0934 0 0
5:52 am 05:52 Mostly Clear 28 -2.2 25 -3.9 88 88 NNW 3 6 30.14 1021 10 16.0934 0 0
6:52 am 06:52 Mostly Clear with Mist and Fog 27 -2.8 23 -5 85 85 NE 6 9 30.12 1020 10 16.0934 0 0
7:52 am 07:52 Mostly Sunny 29 -1.7 25 -3.9 85 85 Calm 30.12 1020 7 11.26538 0 0
8:52 am 08:52 Partly Cloudy 32 0 26 -3.3 79 79 E 5 7 30.11 1020 8 12.87472 0 0
9:52 am 09:52 Mostly Cloudy 37 2.8 27 -2.8 67 67 E 7 11 30.09 1019 8 12.87472 0 0
10:52 am 10:52 Mostly Cloudy 41 5 27 -2.8 57 57 SE 3 6 30.06 1018 10 16.0934 0 0
11:52 am 11:52 Mostly Cloudy 46 7.8 28 -2.2 50 50 Calm 30.03 1017 10 16.0934 0 0
12:52 pm 12:52 Mostly Cloudy 49 9.4 29 -1.7 46 46 WNW 5 7 30.01 1016 10 16.0934 0 0
1:52 pm 13:52 Mostly Cloudy 49 9.4 29 -1.7 46 46 N 6 9 29.97 1015 10 16.0934 0 0
2:52 pm 14:52 Cloudy 48 8.9 28 -2.2 46 46 Calm 29.97 1015 10 16.0934 0 0
3:52 pm 15:52 Cloudy 48 8.9 29 -1.7 48 48 Calm 29.94 1014 10 16.0934 0 0
4:52 pm 16:52 Cloudy 47 8.3 30 -1.1 52 52 Calm 29.93 1014 10 16.0934 0 0
5:52 pm 17:52 Cloudy 45 7.2 30 -1.1 56 56 E 3 6 29.93 1014 10 16.0934 0 0
6:52 pm 18:52 Cloudy 44 6.7 30 -1.1 58 58 Calm 29.93 1014 10 16.0934 0 0
7:52 pm 19:52 Cloudy 42 5.6 31 -0.6 65 65 WSW 3 6 29.93 1013 10 16.0934 0 0
8:52 pm 20:52 Cloudy 41 5 31 -0.6 67 67 WNW 3 6 29.9 1013 10 16.0934 0 0
9:52 pm 21:52 Cloudy 42 5.6 31 -0.6 65 65 Calm 29.88 1012 10 16.0934 0 0
10:52 pm 22:52 Cloudy 37 2.8 31 -0.6 79 79 WNW 3 6 29.86 1011 10 16.0934 0 0
11:52 pm 23:52 Cloudy 37 2.8 30 -1.1 76 76 Calm 29.85 1011 10 16.0934 0 0

Powered by AerisWeather